Tracking 18844 objects as of 21-Nov-2017
HD Live streaming from Space Station
objects crossing your sky now

LEMUR 2 MONSON

Track LEMUR 2 MONSON now!
10-day predictions
LEMUR 2 MONSON is classified as:


NORAD ID: 42839
Int'l Code: 2017-042Q
Perigee: 591.9 km
Apogee: 610.4 km
Inclination: 97.6 °
Period: 96.6 minutes
Semi major axis: 6972 km
RCS: Unknown
Launch date: July 14, 2017
Source: United States (US)
Launch site: TYURATAM MISSILE AND SPACE COMPLEX (TTMTR)
aabbcc
Your satellite tracking list
Your tracking list is empty




NASA's NSSDC Master Catalog

Two Line Element Set (TLE):
1 42839U 17042Q   17324.70958319 +.00000633 +00000-0 +68938-4 0  9999
2 42839 097.6078 229.8305 0013275 164.3840 195.7791 14.91263335019284
Source of the keplerian elements: AFSPC